• In Portugal
  • List of Countries
  • For 7 days
  • Water Temperature
  • Satellite Maps
  • Weather Map
  • Weather Widgets
  • user-avatar
    Login

    Hourly Weather Konstantyna

    Today, 23 February, Friday

    Time Temperature Precipitation Wind Pressure Humidity
    00:00 +1°C° 0 mm 2 mps 700 mmHg 92%
    01:00 +1°C° 0 mm 2 mps 700 mmHg 92%
    02:00 +1°C° 0 mm 2 mps 700 mmHg 91%
    03:00 +1°C° 0 mm 2 mps 699 mmHg 91%
    04:00 +1°C° 0 mm 2 mps 699 mmHg 90%
    05:00 +1°C° 0 mm 2 mps 699 mmHg 90%
    06:00 +1°C° 0 mm 2 mps 700 mmHg 89%
    07:00 +2°C° 0 mm 2 mps 700 mmHg 80%
    08:00 +4°C° 0 mm 2 mps 700 mmHg 72%
    09:00 +6°C° 0 mm 2 mps 701 mmHg 63%
    10:00 +7°C° 0 mm 2 mps 701 mmHg 58%
    11:00 +8°C° 0 mm 3 mps 701 mmHg 53%
    12:00 +9°C° 0 mm 3 mps 701 mmHg 48%
    13:00 +9°C° 0.2 mm 3 mps 701 mmHg 50%
    14:00 +9°C° 0.2 mm 3 mps 701 mmHg 51%
    15:00 +9°C° 0.2 mm 3 mps 701 mmHg 53%
    16:00 +8°C° 0.2 mm 3 mps 701 mmHg 61%
    17:00 +6°C° 0.2 mm 2 mps 701 mmHg 68%
    18:00 +6°C° 0.2 mm 1 mps 701 mmHg 76%
    19:00 +5°C° 0 mm 1 mps 701 mmHg 79%
    20:00 +5°C° 0 mm 1 mps 702 mmHg 82%
    21:00 +4°C° 0 mm 1 mps 702 mmHg 85%
    22:00 +4°C° 0 mm 1 mps 702 mmHg 85%
    23:00 +3°C° 0 mm 1 mps 702 mmHg 85%

    Tomorrow, 24 February, Saturday

    Time Temperature Precipitation Wind Pressure Humidity
    00:00 +3°C° 0 mm 1 mps 702 mmHg 85%
    01:00 +3°C° 0 mm 1 mps 702 mmHg 83%
    02:00 +4°C° 0 mm 1 mps 701 mmHg 81%
    03:00 +4°C° 0 mm 1 mps 701 mmHg 79%
    04:00 +4°C° 0 mm 1 mps 701 mmHg 78%
    05:00 +4°C° 0 mm 1 mps 701 mmHg 76%
    06:00 +5°C° 0 mm 1 mps 701 mmHg 75%
    07:00 +6°C° 0 mm 1 mps 701 mmHg 70%
    08:00 +8°C° 0 mm 1 mps 701 mmHg 64%
    09:00 +9°C° 0 mm 1 mps 702 mmHg 59%
    10:00 +9°C° 0.1 mm 2 mps 701 mmHg 57%
    11:00 +10°C° 0.1 mm 2 mps 701 mmHg 55%
    12:00 +12°C° 0.1 mm 2 mps 701 mmHg 53%
    13:00 +12°C° 0.1 mm 2 mps 701 mmHg 56%
    14:00 +12°C° 0.1 mm 2 mps 700 mmHg 59%
    15:00 +12°C° 0.1 mm 2 mps 700 mmHg 63%
    16:00 +10°C° 0.2 mm 2 mps 700 mmHg 71%
    17:00 +9°C° 0.2 mm 2 mps 700 mmHg 79%
    18:00 +7°C° 0.2 mm 2 mps 700 mmHg 87%
    19:00 +7°C° 0.3 mm 2 mps 701 mmHg 90%
    20:00 +7°C° 0.3 mm 1 mps 701 mmHg 93%
    21:00 +7°C° 0.3 mm 1 mps 701 mmHg 95%
    22:00 +7°C° 0.1 mm 1 mps 701 mmHg 95%
    23:00 +6°C° 0.1 mm 1 mps 702 mmHg 95%

    Day after tomorrow, 25 February, Sunday

    Time Temperature Precipitation Wind Pressure Humidity
    00:00 +6°C° 0.1 mm 1 mps 702 mmHg 95%
    01:00 +6°C° 0.1 mm 1 mps 702 mmHg 95%
    02:00 +5°C° 0.1 mm 1 mps 702 mmHg 95%
    03:00 +5°C° 0.1 mm 1 mps 702 mmHg 94%
    04:00 +5°C° 0.1 mm 1 mps 702 mmHg 94%
    05:00 +5°C° 0.1 mm 1 mps 702 mmHg 93%
    06:00 +5°C° 0.1 mm 2 mps 702 mmHg 93%
    07:00 +5°C° 0.1 mm 2 mps 703 mmHg 89%
    08:00 +6°C° 0.1 mm 2 mps 703 mmHg 86%
    09:00 +7°C° 0.1 mm 2 mps 704 mmHg 83%
    10:00 +7°C° 0.2 mm 3 mps 704 mmHg 79%
    11:00 +7°C° 0.2 mm 3 mps 704 mmHg 75%
    12:00 +7°C° 0.2 mm 4 mps 704 mmHg 72%
    13:00 +7°C° 0.1 mm 4 mps 704 mmHg 69%
    14:00 +7°C° 0.1 mm 4 mps 704 mmHg 65%
    15:00 +8°C° 0.1 mm 5 mps 704 mmHg 62%
    16:00 +6°C° 0 mm 4 mps 704 mmHg 68%
    17:00 +5°C° 0 mm 3 mps 704 mmHg 73%
    18:00 +5°C° 0 mm 2 mps 705 mmHg 79%
    19:00 +4°C° 0 mm 2 mps 705 mmHg 80%
    20:00 +4°C° 0 mm 2 mps 705 mmHg 81%
    21:00 +3°C° 0 mm 2 mps 705 mmHg 83%
    22:00 +3°C° 0 mm 2 mps 705 mmHg 82%
    23:00 +3°C° 0 mm 2 mps 705 mmHg 81%

    26 February, Monday

    Time Temperature Precipitation Wind Pressure Humidity
    00:00 +3°C° 0 mm 2 mps 705 mmHg 81%
    01:00 +2°C° 0 mm 2 mps 705 mmHg 81%
    02:00 +2°C° 0 mm 2 mps 704 mmHg 80%
    03:00 +2°C° 0 mm 2 mps 704 mmHg 80%
    04:00 +2°C° 0 mm 2 mps 704 mmHg 79%
    05:00 +2°C° 0 mm 2 mps 704 mmHg 78%
    06:00 +2°C° 0 mm 2 mps 704 mmHg 77%
    07:00 +4°C° 0 mm 2 mps 704 mmHg 67%
    08:00 +7°C° 0 mm 2 mps 705 mmHg 58%
    09:00 +9°C° 0 mm 2 mps 705 mmHg 48%
    10:00 +10°C° 0 mm 3 mps 705 mmHg 43%
    11:00 +12°C° 0 mm 3 mps 705 mmHg 38%
    12:00 +13°C° 0 mm 3 mps 705 mmHg 33%
    13:00 +13°C° 0 mm 3 mps 704 mmHg 33%
    14:00 +14°C° 0 mm 3 mps 704 mmHg 34%
    15:00 +14°C° 0 mm 3 mps 703 mmHg 35%
    16:00 +12°C° 0 mm 3 mps 703 mmHg 44%
    17:00 +10°C° 0 mm 2 mps 702 mmHg 53%
    18:00 +8°C° 0 mm 2 mps 702 mmHg 61%
    19:00 +7°C° 0 mm 2 mps 702 mmHg 62%
    20:00 +7°C° 0 mm 2 mps 702 mmHg 62%
    21:00 +7°C° 0 mm 2 mps 701 mmHg 62%
    22:00 +7°C° 0 mm 2 mps 701 mmHg 61%
    23:00 +7°C° 0 mm 2 mps 700 mmHg 61%

    27 February, Tuesday

    Time Temperature Precipitation Wind Pressure Humidity
    00:00 +9°C° 0 mm 1 mps 700 mmHg 60%
    01:00 +8°C° 1.9 mm 1 mps 700 mmHg 69%
    02:00 +8°C° 1.9 mm 1 mps 699 mmHg 78%
    03:00 +8°C° 1.9 mm 1 mps 699 mmHg 87%
    04:00 +7°C° 0.6 mm 1 mps 699 mmHg 88%
    05:00 +7°C° 0.6 mm 1 mps 699 mmHg 89%
    06:00 +7°C° 0.6 mm 1 mps 699 mmHg 90%
    07:00 +8°C° 0.1 mm 1 mps 699 mmHg 86%
    08:00 +9°C° 0.1 mm 1 mps 700 mmHg 81%
    09:00 +9°C° 0.1 mm 2 mps 700 mmHg 77%
    10:00 +10°C° 0 mm 3 mps 701 mmHg 73%
    11:00 +11°C° 0 mm 3 mps 701 mmHg 70%
    12:00 +12°C° 0 mm 4 mps 701 mmHg 67%
    13:00 +11°C° 0 mm 4 mps 702 mmHg 67%
    14:00 +11°C° 0 mm 4 mps 702 mmHg 67%
    15:00 +11°C° 0 mm 4 mps 702 mmHg 67%
    16:00 +10°C° 0 mm 3 mps 702 mmHg 73%
    17:00 +8°C° 0 mm 2 mps 703 mmHg 79%
    18:00 +8°C° 0 mm 1 mps 703 mmHg 85%
    19:00 +8°C° 0 mm 1 mps 704 mmHg 86%
    20:00 +7°C° 0 mm 1 mps 704 mmHg 88%
    21:00 +7°C° 0 mm 1 mps 704 mmHg 89%
    22:00 +7°C° 0 mm 1 mps 705 mmHg 88%
    23:00 +7°C° 0 mm 1 mps 705 mmHg 86%

    28 February, Wednesday

    Time Temperature Precipitation Wind Pressure Humidity
    00:00 +6°C° 0 mm 2 mps 705 mmHg 85%
    01:00 +6°C° 0 mm 2 mps 705 mmHg 84%
    02:00 +6°C° 0 mm 2 mps 705 mmHg 83%
    03:00 +6°C° 0 mm 2 mps 704 mmHg 82%
    04:00 +6°C° 0 mm 2 mps 705 mmHg 82%
    05:00 +5°C° 0 mm 2 mps 705 mmHg 81%
    06:00 +5°C° 0 mm 2 mps 705 mmHg 81%
    07:00 +8°C° 0 mm 2 mps 705 mmHg 74%
    08:00 +10°C° 0 mm 2 mps 705 mmHg 67%
    09:00 +12°C° 0 mm 3 mps 706 mmHg 61%
    10:00 +14°C° 0 mm 3 mps 706 mmHg 55%
    11:00 +17°C° 0 mm 4 mps 706 mmHg 49%
    12:00 +18°C° 0 mm 4 mps 706 mmHg 43%
    13:00 +19°C° 0 mm 5 mps 705 mmHg 43%
    14:00 +19°C° 0 mm 5 mps 705 mmHg 42%
    15:00 +19°C° 0 mm 5 mps 704 mmHg 42%
    16:00 +16°C° 0 mm 5 mps 704 mmHg 47%
    17:00 +14°C° 0 mm 4 mps 703 mmHg 53%
    18:00 +12°C° 0 mm 3 mps 703 mmHg 58%
    19:00 +11°C° 0 mm 3 mps 703 mmHg 58%
    20:00 +11°C° 0 mm 3 mps 703 mmHg 59%
    21:00 +10°C° 0 mm 3 mps 703 mmHg 59%
    22:00 +10°C° 0 mm 4 mps 702 mmHg 59%
    23:00 +10°C° 0 mm 4 mps 702 mmHg 59%
    Show more